Date,TemperatureHighF,TemperatureAvgF,TemperatureLowF,DewpointHighF,DewpointAvgF,DewpointLowF,HumidityHigh,HumidityAvg,HumidityLow,PressureMaxIn,PressureMinIn,WindSpeedMaxMPH,WindSpeedAvgMPH,GustSpeedMaxMPH,PrecipitationSumIn
2013-1-1,30,23,18,-100,-100,-100,0,0,100,0.00,40.00,13,7,25,0.00
2013-1-2,25,21,15,-100,-100,-100,0,0,100,0.00,40.00,7,5,13,0.00
2013-1-3,30,24,18,-100,-100,-100,0,0,100,0.00,40.00,13,9,22,0.00
2013-1-4,29,28,24,-100,-100,-100,0,0,100,0.00,40.00,22,14,29,0.00
2013-1-5,32,26,20,-100,-100,-100,0,0,100,0.00,40.00,13,8,27,0.00
2013-1-6,36,34,32,-100,-100,-100,0,0,100,0.00,40.00,13,9,21,0.00
2013-1-7,36,32,30,-100,-100,-100,0,0,100,0.00,40.00,19,10,29,0.00
2013-1-8,36,31,27,-100,-100,-100,0,0,100,0.00,40.00,11,7,18,0.00
2013-1-9,48,40,33,-100,-100,-100,0,0,100,0.00,40.00,25,13,34,0.00
2013-1-10,35,33,28,-100,-100,-100,0,0,100,0.00,40.00,13,6,27,0.00
2013-1-11,56,43,34,-100,-100,-100,0,0,100,0.00,40.00,15,10,25,0.00
2013-1-12,58,50,39,-100,-100,-100,0,0,100,0.00,40.00,12,7,19,0.00
2013-1-13,42,40,35,-100,-100,-100,0,0,100,0.00,40.00,18,8,27,0.00
2013-1-14,35,27,23,-100,-100,-100,0,0,100,0.00,40.00,18,9,30,0.00
2013-1-15,28,24,19,-100,-100,-100,0,0,100,0.00,40.00,7,4,11,0.00
2013-1-16,38,31,25,-100,-100,-100,0,0,100,0.00,40.00,18,9,28,0.00
2013-1-17,35,31,19,-100,-100,-100,0,0,100,0.00,40.00,19,10,29,0.00
2013-1-18,35,26,17,-100,-100,-100,0,0,100,0.00,40.00,21,10,33,0.00
2013-1-19,47,42,37,-100,-100,-100,0,0,100,0.00,40.00,22,17,40,0.00
2013-1-20,44,25,18,-100,-100,-100,0,0,100,0.00,40.00,30,17,44,0.00
2013-1-21,19,15,7,-100,-100,-100,0,0,100,0.00,40.00,17,9,26,0.00
2013-1-22,10,6,1,-100,-100,-100,0,0,100,0.00,40.00,16,11,25,0.00
2013-1-23,16,11,6,-100,-100,-100,0,0,100,0.00,40.00,13,8,17,0.00
2013-1-24,19,15,12,-100,-100,-100,0,0,100,0.00,40.00,16,8,26,0.00
2013-1-25,20,18,14,-100,-100,-100,0,0,100,0.00,40.00,14,7,23,0.00
2013-1-26,26,22,19,-100,-100,-100,0,0,100,0.00,40.00,11,5,16,0.00
2013-1-27,28,24,17,-100,-100,-100,0,0,100,0.00,40.00,17,7,21,0.00
2013-1-28,45,40,28,-100,-100,-100,0,0,100,0.00,40.00,16,8,23,0.00
2013-1-29,54,43,33,-100,-100,-100,0,0,100,0.00,40.00,17,8,21,0.00
2013-1-30,61,51,39,-100,-100,-100,0,0,100,0.00,40.00,22,11,39,0.00
2013-1-31,39,23,19,-100,-100,-100,0,0,100,0.00,40.00,26,16,39,0.00
2013-2-1,20,16,11,-100,-100,-100,0,0,100,0.00,40.00,18,13,28,0.00
2013-2-2,22,17,13,-100,-100,-100,0,0,100,0.00,40.00,17,9,25,0.00
2013-2-3,21,16,11,-100,-100,-100,0,0,100,0.00,40.00,13,7,26,0.00
2013-2-4,18,17,15,-100,-100,-100,0,0,100,0.00,40.00,7,4,13,0.00
2013-2-5,27,20,14,-100,-100,-100,0,0,100,0.00,40.00,11,5,17,0.00
2013-2-6,27,21,18,-100,-100,-100,0,0,100,0.00,40.00,13,7,26,0.00
2013-2-7,31,28,22,-100,-100,-100,0,0,100,0.00,40.00,13,10,17,0.00
2013-2-8,30,27,25,-100,-100,-100,0,0,100,0.00,40.00,25,15,37,0.00
2013-2-9,27,22,15,-100,-100,-100,0,0,100,0.00,40.00,11,7,15,0.00
2013-2-10,35,28,20,-100,-100,-100,0,0,100,0.00,40.00,14,9,27,0.00
2013-2-11,44,37,33,-100,-100,-100,0,0,100,0.00,40.00,27,17,45,0.00
2013-2-12,33,32,30,-100,-100,-100,0,0,100,0.00,40.00,21,12,32,0.00
2013-2-13,34,29,27,-100,-100,-100,0,0,100,0.00,40.00,13,6,15,0.00
2013-2-14,40,34,29,-100,-100,-100,0,0,100,0.00,40.00,23,11,33,0.00
2013-2-15,36,29,26,-100,-100,-100,0,0,100,0.00,40.00,21,10,30,0.00
2013-2-16,26,21,18,-100,-100,-100,0,0,100,0.00,40.00,10,5,14,0.00
2013-2-17,22,17,11,-100,-100,-100,0,0,100,0.00,40.00,11,7,18,0.00
2013-2-18,43,27,17,-100,-100,-100,0,0,100,0.00,40.00,21,12,25,0.00
2013-2-19,43,31,19,-100,-100,-100,0,0,100,0.00,40.00,24,18,41,0.00
2013-2-20,22,20,17,-100,-100,-100,0,0,100,0.00,40.00,20,14,29,0.00
2013-2-21,22,20,17,-100,-100,-100,0,0,100,0.00,40.00,16,10,26,0.00
2013-2-22,34,26,21,-100,-100,-100,0,0,100,0.00,40.00,24,16,29,0.00
2013-2-23,34,32,28,-100,-100,-100,0,0,100,0.00,40.00,16,9,22,0.00
2013-2-24,35,29,25,-100,-100,-100,0,0,100,0.00,40.00,14,8,20,0.00
2013-2-25,32,28,21,-100,-100,-100,0,0,100,0.00,40.00,10,4,28,0.00
2013-2-26,34,31,28,-100,-100,-100,0,0,100,0.00,40.00,23,17,30,0.00
2013-2-27,38,34,32,-100,-100,-100,0,0,100,0.00,40.00,21,11,32,0.00
2013-2-28,36,33,30,-100,-100,-100,0,0,100,0.00,40.00,22,12,29,0.00
2013-3-1,30,27,26,-100,-100,-100,0,0,100,0.00,40.00,22,16,27,0.00
2013-3-2,28,26,24,-100,-100,-100,0,0,100,0.00,40.00,17,11,22,0.00
2013-3-3,27,24,21,-100,-100,-100,0,0,100,0.00,40.00,16,8,19,0.00
2013-3-4,30,25,18,-100,-100,-100,0,0,100,0.00,40.00,11,5,13,0.00
2013-3-5,32,28,23,-100,-100,-100,0,0,100,0.00,40.00,26,13,29,0.00
2013-3-6,40,32,27,-100,-100,-100,0,0,100,0.00,40.00,26,11,29,0.00
2013-3-7,35,33,31,-100,-100,-100,0,0,100,0.00,40.00,10,6,15,0.00
2013-3-8,37,31,25,-100,-100,-100,0,0,100,0.00,40.00,8,5,9,0.00
2013-3-9,35,32,28,-100,-100,-100,0,0,100,0.00,40.00,11,6,12,0.00
2013-3-10,61,47,33,-100,-100,-100,0,0,100,0.00,40.00,21,8,30,0.00
2013-3-11,54,48,38,-100,-100,-100,0,0,100,0.00,40.00,20,13,32,0.00
2013-3-12,41,36,32,-100,-100,-100,0,0,100,0.00,40.00,18,12,29,0.00
2013-3-13,33,30,27,-100,-100,-100,0,0,100,0.00,40.00,19,13,30,0.00
2013-3-14,39,30,24,-100,-100,-100,0,0,100,0.00,40.00,13,8,26,0.00
2013-3-15,39,35,31,-100,-100,-100,0,0,100,0.00,40.00,14,9,25,0.00
2013-3-16,31,29,27,-100,-100,-100,0,0,100,0.00,40.00,18,12,22,0.00
2013-3-17,30,27,24,-100,-100,-100,0,0,100,0.00,40.00,19,13,26,0.00
2013-3-18,36,31,25,-100,-100,-100,0,0,100,0.00,40.00,30,20,32,0.00
2013-3-19,36,28,24,-100,-100,-100,0,0,100,0.00,40.00,24,16,36,0.00
2013-3-20,29,26,21,-100,-100,-100,0,0,100,0.00,40.00,18,12,24,0.00
2013-3-21,31,24,18,-100,-100,-100,0,0,100,0.00,40.00,18,12,22,0.00
2013-3-22,38,31,26,-100,-100,-100,0,0,100,0.00,40.00,14,9,21,0.00
2013-3-23,36,31,26,-100,-100,-100,0,0,100,0.00,40.00,10,6,11,0.00
2013-3-24,34,32,27,-100,-100,-100,0,0,100,0.00,40.00,24,14,29,0.00
2013-3-25,37,34,30,-100,-100,-100,0,0,100,0.00,40.00,25,20,29,0.00
2013-3-26,43,38,34,-100,-100,-100,0,0,100,0.00,40.00,14,9,22,0.00
2013-3-27,45,39,31,-100,-100,-100,0,0,100,0.00,40.00,15,10,23,0.00
2013-3-28,44,39,34,-100,-100,-100,0,0,100,0.00,40.00,13,8,20,0.00
2013-3-29,47,40,34,-100,-100,-100,0,0,100,0.00,40.00,12,6,13,0.00
2013-3-30,54,41,32,-100,-100,-100,0,0,100,0.00,40.00,15,6,17,0.00
2013-3-31,58,47,40,-100,-100,-100,0,0,100,0.00,40.00,14,8,29,0.00
2013-4-1,44,34,30,-100,-100,-100,0,0,100,0.00,40.00,17,12,29,0.00
2013-4-2,39,32,25,-100,-100,-100,0,0,100,0.00,40.00,15,10,27,0.00
2013-4-3,36,32,27,-100,-100,-100,0,0,100,0.00,40.00,15,9,23,0.00
2013-4-4,54,42,31,-100,-100,-100,0,0,100,0.00,40.00,16,8,25,0.00
2013-4-5,46,39,33,-100,-100,-100,0,0,100,0.00,40.00,21,12,24,0.00
2013-4-6,42,37,32,-100,-100,-100,0,0,100,0.00,40.00,19,13,23,0.00
2013-4-7,59,52,42,-100,-100,-100,0,0,100,0.00,40.00,23,14,36,0.00
2013-4-8,65,46,40,-100,-100,-100,0,0,100,0.00,40.00,20,11,35,0.00
2013-4-9,50,44,40,-100,-100,-100,0,0,100,0.00,40.00,18,9,27,0.00
2013-4-10,45,42,40,-100,-100,-100,0,0,100,0.00,40.00,20,14,27,0.00
2013-4-11,41,38,36,-100,-100,-100,0,0,100,0.00,40.00,27,20,34,0.00
2013-4-12,44,39,36,-100,-100,-100,0,0,100,0.00,40.00,26,13,31,0.00
2013-4-13,42,40,34,-100,-100,-100,0,0,100,0.00,40.00,21,14,27,0.00
2013-4-14,41,39,36,-100,-100,-100,0,0,100,0.00,40.00,14,7,26,0.00
2013-4-15,67,51,40,-100,-100,-100,0,0,100,0.00,40.00,16,9,29,0.00
2013-4-16,61,55,47,-100,-100,-100,0,0,100,0.00,40.00,13,8,29,0.00
2013-4-17,50,45,41,-100,-100,-100,0,0,100,0.00,40.00,23,12,29,0.00
2013-4-18,78,58,44,-100,-100,-100,0,0,100,0.00,40.00,27,14,41,0.00
2013-4-19,62,48,40,-100,-100,-100,0,0,100,0.00,40.00,30,16,44,0.00
2013-4-20,39,36,32,-100,-100,-100,0,0,100,0.00,40.00,19,12,29,0.00
2013-4-21,42,37,33,-100,-100,-100,0,0,100,0.00,40.00,17,10,19,0.00
2013-4-22,51,45,40,-100,-100,-100,0,0,100,0.00,40.00,19,11,24,0.00
2013-4-23,66,52,47,-100,-100,-100,0,0,100,0.00,40.00,15,9,20,0.00
2013-4-24,56,42,36,-100,-100,-100,0,0,100,0.00,40.00,23,10,27,0.00
2013-4-25,51,44,37,-100,-100,-100,0,0,100,0.00,40.00,23,11,29,0.00
2013-4-26,55,46,36,-100,-100,-100,0,0,100,0.00,40.00,14,8,22,0.00
2013-4-27,54,49,41,-100,-100,-100,0,0,100,0.00,40.00,11,6,12,0.00
2013-4-28,51,50,48,-100,-100,-100,0,0,100,0.00,40.00,11,7,14,0.00
2013-4-29,59,54,50,-100,-100,-100,0,0,100,0.00,40.00,11,5,13,0.00
2013-4-30,69,58,54,-100,-100,-100,0,0,100,0.00,40.00,23,8,29,0.00
2013-5-1,63,56,52,-100,-100,-100,0,0,100,0.00,40.00,14,7,15,0.00
2013-5-2,62,58,53,-100,-100,-100,0,0,100,0.00,40.00,15,8,16,0.00
2013-5-3,61,58,55,-100,-100,-100,0,0,100,0.00,40.00,14,9,17,0.00
2013-5-4,62,58,55,-100,-100,-100,0,0,100,0.00,40.00,11,8,13,0.00
2013-5-5,66,59,55,-100,-100,-100,0,0,100,0.00,40.00,16,9,19,0.00
2013-5-6,66,59,54,-100,-100,-100,0,0,100,0.00,40.00,10,6,12,0.00
2013-5-7,73,62,54,-100,-100,-100,0,0,100,0.00,40.00,17,6,18,0.00
2013-5-8,69,62,56,-100,-100,-100,0,0,100,0.00,40.00,13,6,54,0.00
2013-5-9,73,64,59,-100,-100,-100,0,0,100,0.00,40.00,10,6,12,0.00
2013-5-10,72,60,44,-100,-100,-100,0,0,100,0.00,40.00,16,9,27,0.00
2013-5-11,58,48,42,-100,-100,-100,0,0,100,0.00,40.00,21,10,35,0.00
2013-5-12,48,43,39,-100,-100,-100,0,0,100,0.00,40.00,20,14,32,0.00
2013-5-13,49,43,35,-100,-100,-100,0,0,100,0.00,40.00,10,8,19,0.00
2013-5-14,56,52,47,-100,-100,-100,0,0,100,0.00,40.00,21,13,27,0.00
2013-5-15,80,68,52,-100,-100,-100,0,0,100,0.00,40.00,19,10,32,0.00
2013-5-16,77,58,55,-100,-100,-100,0,0,100,0.00,40.00,19,10,24,0.00
2013-5-17,63,54,51,-100,-100,-100,0,0,100,0.00,40.00,16,9,19,0.00
2013-5-18,68,60,55,-100,-100,-100,0,0,100,0.00,40.00,13,7,15,0.00
2013-5-19,72,62,58,-100,-100,-100,0,0,100,0.00,40.00,15,7,18,0.00
2013-5-20,85,71,61,-100,-100,-100,0,0,100,0.00,40.00,15,7,25,0.00
2013-5-21,84,77,68,-100,-100,-100,0,0,100,0.00,40.00,18,8,24,0.00
2013-5-22,81,72,68,-100,-100,-100,0,0,100,0.00,40.00,20,10,31,0.00
2013-5-23,67,55,43,-100,-100,-100,0,0,100,0.00,40.00,28,14,32,0.00
2013-5-24,52,45,40,-100,-100,-100,0,0,100,0.00,40.00,19,12,25,0.00
2013-5-25,58,49,40,-100,-100,-100,0,0,100,0.00,40.00,21,8,23,0.00
2013-5-26,61,53,44,-100,-100,-100,0,0,100,0.00,40.00,15,7,17,0.00
2013-5-27,61,54,50,-100,-100,-100,0,0,100,0.00,40.00,19,9,28,0.00
2013-5-28,65,58,52,-100,-100,-100,0,0,100,0.00,40.00,17,8,23,0.00
2013-5-29,84,75,65,-100,-100,-100,0,0,100,0.00,40.00,16,9,28,0.00
2013-5-30,85,73,67,-100,-100,-100,0,0,100,0.00,40.00,15,7,30,0.00
2013-5-31,83,74,69,-100,-100,-100,0,0,100,0.00,40.00,23,10,30,0.00
2013-6-1,79,71,65,-100,-100,-100,0,0,100,0.00,40.00,15,9,25,0.00
2013-6-2,71,67,57,-100,-100,-100,0,0,100,0.00,40.00,19,11,30,0.00
2013-6-3,62,55,50,-100,-100,-100,0,0,100,0.00,40.00,12,7,18,0.00
2013-6-4,64,58,53,-100,-100,-100,0,0,100,0.00,40.00,18,10,21,0.00
2013-6-5,68,61,56,-100,-100,-100,0,0,100,0.00,40.00,15,9,22,0.00
2013-6-6,62,60,58,-100,-100,-100,0,0,100,0.00,40.00,20,16,24,0.00
2013-6-7,60,56,54,-100,-100,-100,0,0,100,0.00,40.00,14,9,18,0.00
2013-6-8,64,60,57,-100,-100,-100,0,0,100,0.00,40.00,9,4,9,0.00
2013-6-9,66,63,60,-100,-100,-100,0,0,100,0.00,40.00,18,8,19,0.00
2013-6-10,67,64,60,-100,-100,-100,0,0,100,0.00,40.00,18,7,24,0.00
2013-6-11,76,68,64,-100,-100,-100,0,0,100,0.00,40.00,10,6,19,0.00
2013-6-12,69,66,63,-100,-100,-100,0,0,100,0.00,40.00,15,4,19,0.00
2013-6-13,74,68,63,-100,-100,-100,0,0,100,0.00,40.00,23,14,30,0.00
2013-6-14,69,64,61,-100,-100,-100,0,0,100,0.00,40.00,16,10,21,0.00
2013-6-15,78,69,59,-100,-100,-100,0,0,100,0.00,40.00,12,6,18,0.00
2013-6-16,81,71,66,-100,-100,-100,0,0,100,0.00,40.00,14,9,28,0.00
2013-6-17,75,68,64,-100,-100,-100,0,0,100,0.00,40.00,25,10,31,0.00
2013-6-18,67,62,58,-100,-100,-100,0,0,100,0.00,40.00,20,15,25,0.00
2013-6-19,70,62,55,-100,-100,-100,0,0,100,0.00,40.00,18,8,24,0.00
2013-6-20,71,64,61,-100,-100,-100,0,0,100,0.00,40.00,16,7,19,0.00
2013-6-22,87,80,75,-100,-100,-100,0,0,100,0.00,40.00,14,8,30,0.00
2013-6-23,89,80,72,-100,-100,-100,0,0,100,0.00,40.00,15,8,21,0.00
2013-6-24,86,80,71,-100,-100,-100,0,0,100,0.00,40.00,16,9,24,0.00
2013-6-25,80,74,69,-100,-100,-100,0,0,100,0.00,40.00,17,8,30,0.00
2013-6-26,80,74,68,-100,-100,-100,0,0,100,0.00,40.00,11,8,19,0.00
2013-6-27,77,73,68,-100,-100,-100,0,0,100,0.00,40.00,12,5,22,0.00
2013-6-28,75,69,63,-100,-100,-100,0,0,100,0.00,40.00,13,6,27,0.00
2013-6-29,71,68,65,-100,-100,-100,0,0,100,0.00,40.00,20,11,24,0.00
2013-6-30,73,68,64,-100,-100,-100,0,0,100,0.00,40.00,21,13,25,0.00
2013-7-1,69,66,65,-100,-100,-100,0,0,100,0.00,40.00,23,18,26,0.00
2013-7-2,69,66,64,-100,-100,-100,0,0,100,0.00,40.00,19,12,27,0.00
2013-7-3,82,72,66,-100,-100,-100,0,0,100,0.00,40.00,13,8,18,0.00
2013-7-4,80,75,71,-100,-100,-100,0,0,100,0.00,40.00,12,8,17,0.00
2013-7-5,77,72,69,-100,-100,-100,0,0,100,0.00,40.00,10,5,12,0.00
2013-7-6,78,74,72,-100,-100,-100,0,0,100,0.00,40.00,10,5,13,0.00
2013-7-7,81,75,71,-100,-100,-100,0,0,100,0.00,40.00,10,7,14,0.00
2013-7-8,83,73,70,-100,-100,-100,0,0,100,0.00,40.00,14,8,18,0.00
2013-7-9,89,76,72,-100,-100,-100,0,0,100,0.00,40.00,12,7,16,0.00
2013-7-10,88,77,72,-100,-100,-100,0,0,100,0.00,40.00,24,11,26,0.00
2013-7-11,74,69,65,-100,-100,-100,0,0,100,0.00,40.00,19,10,22,0.00
2013-7-12,78,68,60,-100,-100,-100,0,0,100,0.00,40.00,16,9,20,0.00
2013-7-13,78,73,69,-100,-100,-100,0,0,100,0.00,40.00,13,7,15,0.00
2013-7-14,82,77,72,-100,-100,-100,0,0,100,0.00,40.00,9,6,11,0.00
2013-7-15,83,78,75,-100,-100,-100,0,0,100,0.00,40.00,8,4,14,0.00
2013-7-16,84,81,77,-100,-100,-100,0,0,100,0.00,40.00,10,4,12,0.00
2013-7-17,92,84,78,-100,-100,-100,0,0,100,0.00,40.00,11,6,16,0.00
2013-7-18,91,84,79,-100,-100,-100,0,0,100,0.00,40.00,14,7,30,0.00
2013-7-19,93,84,75,-100,-100,-100,0,0,100,0.00,40.00,25,12,41,0.00
2013-7-20,86,76,72,-100,-100,-100,0,0,100,0.00,40.00,17,8,24,0.00
2013-7-21,77,72,66,-100,-100,-100,0,0,100,0.00,40.00,17,10,19,0.00
2013-7-22,77,75,72,-100,-100,-100,0,0,100,0.00,40.00,14,10,17,0.00
2013-7-23,81,72,65,-100,-100,-100,0,0,100,0.00,40.00,21,8,29,0.00
2013-7-24,68,63,58,-100,-100,-100,0,0,100,0.00,40.00,18,13,28,0.00
2013-7-25,73,65,57,-100,-100,-100,0,0,100,0.00,40.00,11,6,16,0.00
2013-7-26,76,70,63,-100,-100,-100,0,0,100,0.00,40.00,12,6,19,0.00
2013-7-27,73,68,62,-100,-100,-100,0,0,100,0.00,40.00,18,9,29,0.00
2013-7-28,67,61,55,-100,-100,-100,0,0,100,0.00,40.00,17,9,30,0.00
2013-7-29,70,63,59,-100,-100,-100,0,0,100,0.00,40.00,14,7,20,0.00
2013-7-30,72,66,59,-100,-100,-100,0,0,100,0.00,40.00,10,6,11,0.00
2013-7-31,74,71,68,-100,-100,-100,0,0,100,0.00,40.00,12,7,15,0.00
2013-8-1,79,71,65,-100,-100,-100,0,0,100,0.00,40.00,12,8,17,0.00
2013-8-2,75,69,61,-100,-100,-100,0,0,100,0.00,40.00,20,10,29,0.00
2013-8-3,78,70,64,-100,-100,-100,0,0,100,0.00,40.00,17,7,20,0.00
2013-8-4,71,65,59,-100,-100,-100,0,0,100,0.00,40.00,17,8,19,0.00
2013-8-5,72,66,59,-100,-100,-100,0,0,100,0.00,40.00,13,6,19,0.00
2013-8-6,75,71,66,-100,-100,-100,0,0,100,0.00,40.00,13,8,17,0.00
2013-8-7,83,75,69,-100,-100,-100,0,0,100,0.00,40.00,12,7,26,0.00
2013-8-8,73,70,67,-100,-100,-100,0,0,100,0.00,40.00,18,11,20,0.00
2013-8-9,79,69,63,-100,-100,-100,0,0,100,0.00,40.00,10,6,15,0.00
2013-8-10,74,69,65,-100,-100,-100,0,0,100,0.00,40.00,16,8,20,0.00
2013-8-11,79,71,64,-100,-100,-100,0,0,100,0.00,40.00,11,6,13,0.00
2013-8-12,72,69,66,-100,-100,-100,0,0,100,0.00,40.00,9,4,24,0.00
2013-8-13,67,64,60,-100,-100,-100,0,0,100,0.00,40.00,15,7,22,0.00
2013-8-14,70,62,53,-100,-100,-100,0,0,100,0.00,40.00,11,7,19,0.00
2013-8-15,72,60,56,-100,-100,-100,0,0,100,0.00,40.00,15,7,18,0.00
2013-8-16,73,66,61,-100,-100,-100,0,0,100,0.00,40.00,8,5,10,0.00
2013-8-17,76,68,61,-100,-100,-100,0,0,100,0.00,40.00,7,3,8,0.00
2013-8-18,75,71,65,-100,-100,-100,0,0,100,0.00,40.00,8,5,10,0.00
2013-8-19,83,70,64,-100,-100,-100,0,0,100,0.00,40.00,14,5,17,0.00
2013-8-20,84,75,66,-100,-100,-100,0,0,100,0.00,40.00,13,6,17,0.00
2013-8-21,86,78,70,-100,-100,-100,0,0,100,0.00,40.00,13,8,21,0.00
2013-8-22,84,78,73,-100,-100,-100,0,0,100,0.00,40.00,17,8,22,0.00
2013-8-23,77,71,65,-100,-100,-100,0,0,100,0.00,40.00,17,10,20,0.00
2013-8-24,75,68,61,-100,-100,-100,0,0,100,0.00,40.00,15,7,17,0.00
2013-8-25,86,76,64,-100,-100,-100,0,0,100,0.00,40.00,16,8,25,0.00
2013-8-26,88,79,72,-100,-100,-100,0,0,100,0.00,40.00,14,10,25,0.00
2013-8-27,81,77,72,-100,-100,-100,0,0,100,0.00,40.00,15,8,25,0.00
2013-8-28,79,78,76,-100,-100,-100,0,0,100,0.00,40.00,15,11,16,0.00
2013-8-29,80,74,69,-100,-100,-100,0,0,100,0.00,40.00,11,6,15,0.00
2013-8-30,86,78,70,-100,-100,-100,0,0,100,0.00,40.00,18,8,29,0.00
2013-8-31,76,72,71,-100,-100,-100,0,0,100,0.00,40.00,16,9,24,0.00
2013-9-1,75,72,68,-100,-100,-100,0,0,100,0.00,40.00,10,6,12,0.00
2013-9-2,75,71,64,-100,-100,-100,0,0,100,0.00,40.00,12,8,19,0.00
2013-9-3,75,65,59,-100,-100,-100,0,0,100,0.00,40.00,10,6,17,0.00
2013-9-4,80,70,59,-100,-100,-100,0,0,100,0.00,40.00,17,10,21,0.00
2013-9-5,67,63,57,-100,-100,-100,0,0,100,0.00,40.00,17,11,22,0.00
2013-9-6,73,63,53,-100,-100,-100,0,0,100,0.00,40.00,10,6,13,0.00
2013-9-7,79,71,62,-100,-100,-100,0,0,100,0.00,40.00,12,6,15,0.00
2013-9-8,74,68,64,-100,-100,-100,0,0,100,0.00,40.00,19,13,24,0.00
2013-9-9,74,69,64,-100,-100,-100,0,0,100,0.00,40.00,11,6,26,0.00
2013-9-10,94,83,71,-100,-100,-100,0,0,100,0.00,40.00,17,10,24,0.00
2013-9-11,91,81,70,-100,-100,-100,0,0,100,0.00,40.00,24,8,41,0.00
2013-9-12,77,70,60,-100,-100,-100,0,0,100,0.00,40.00,15,8,22,0.00
2013-9-13,59,56,51,-100,-100,-100,0,0,100,0.00,40.00,20,12,29,0.00
2013-9-14,68,56,45,-100,-100,-100,0,0,100,0.00,40.00,9,5,12,0.00
2013-9-15,65,58,55,-100,-100,-100,0,0,100,0.00,40.00,7,4,13,0.00
2013-9-16,60,57,52,-100,-100,-100,0,0,100,0.00,40.00,19,12,26,0.00
2013-9-17,63,54,45,-100,-100,-100,0,0,100,0.00,40.00,17,8,21,0.00
2013-9-18,65,54,52,-100,-100,-100,0,0,100,0.00,40.00,8,2,10,0.00
2013-9-19,77,70,63,-100,-100,-100,0,0,100,0.00,40.00,11,6,15,0.00
2013-9-20,81,72,68,-100,-100,-100,0,0,100,0.00,40.00,15,8,19,0.00
2013-9-21,69,63,58,-100,-100,-100,0,0,100,0.00,40.00,11,6,29,0.00
2013-9-22,58,54,49,-100,-100,-100,0,0,100,0.00,40.00,15,9,19,0.00
2013-9-23,63,55,50,-100,-100,-100,0,0,100,0.00,40.00,14,7,23,0.00
2013-9-24,67,60,50,-100,-100,-100,0,0,100,0.00,40.00,15,7,17,0.00
2013-9-25,67,60,51,-100,-100,-100,0,0,100,0.00,40.00,15,7,17,0.00
2013-9-26,71,61,52,-100,-100,-100,0,0,100,0.00,40.00,14,5,16,0.00
2013-9-27,70,63,54,-100,-100,-100,0,0,100,0.00,40.00,13,5,16,0.00
2013-9-28,72,65,62,-100,-100,-100,0,0,100,0.00,40.00,13,10,16,0.00
2013-9-29,67,64,60,-100,-100,-100,0,0,100,0.00,40.00,11,7,14,0.00
2013-9-30,70,63,59,-100,-100,-100,0,0,100,0.00,40.00,10,5,16,0.00
2013-10-1,69,67,63,-100,-100,-100,0,0,100,0.00,40.00,11,8,16,0.00
2013-10-2,72,67,62,-100,-100,-100,0,0,100,0.00,40.00,12,6,17,0.00
2013-10-3,77,70,65,-100,-100,-100,0,0,100,0.00,40.00,13,8,15,0.00
2013-10-4,79,73,68,-100,-100,-100,0,0,100,0.00,40.00,12,7,16,0.00
2013-10-5,74,68,65,-100,-100,-100,0,0,100,0.00,40.00,16,7,26,0.00
2013-10-6,74,68,59,-100,-100,-100,0,0,100,0.00,40.00,18,9,29,0.00
2013-10-7,59,55,49,-100,-100,-100,0,0,100,0.00,40.00,21,11,30,0.00
2013-10-8,64,56,47,-100,-100,-100,0,0,100,0.00,40.00,14,7,16,0.00
2013-10-9,65,62,50,-100,-100,-100,0,0,100,0.00,40.00,17,10,20,0.00
2013-10-10,68,62,52,-100,-100,-100,0,0,100,0.00,40.00,9,4,13,0.00
2013-10-11,68,58,49,-100,-100,-100,0,0,100,0.00,40.00,8,4,10,0.00
2013-10-12,68,62,54,-100,-100,-100,0,0,100,0.00,40.00,14,6,16,0.00
2013-10-13,69,63,57,-100,-100,-100,0,0,100,0.00,40.00,8,5,13,0.00
2013-10-14,63,56,51,-100,-100,-100,0,0,100,0.00,40.00,17,9,19,0.00
2013-10-15,63,61,56,-100,-100,-100,0,0,100,0.00,40.00,15,10,22,0.00
2013-10-16,63,60,54,-100,-100,-100,0,0,100,0.00,40.00,17,11,23,0.00
2013-10-17,55,52,50,-100,-100,-100,0,0,100,0.00,40.00,12,8,26,0.00
2013-10-18,63,54,46,-100,-100,-100,0,0,100,0.00,40.00,17,9,23,0.00
2013-10-19,52,46,44,-100,-100,-100,0,0,100,0.00,40.00,13,7,17,0.00
2013-10-20,59,49,42,-100,-100,-100,0,0,100,0.00,40.00,11,8,20,0.00
2013-10-21,57,53,45,-100,-100,-100,0,0,100,0.00,40.00,15,11,27,0.00
2013-10-22,49,43,37,-100,-100,-100,0,0,100,0.00,40.00,17,9,23,0.00
2013-10-23,47,42,36,-100,-100,-100,0,0,100,0.00,40.00,13,7,19,0.00
2013-10-24,48,40,33,-100,-100,-100,0,0,100,0.00,40.00,13,10,21,0.00
2013-10-25,46,40,33,-100,-100,-100,0,0,100,0.00,40.00,14,10,21,0.00
2013-10-26,49,44,41,-100,-100,-100,0,0,100,0.00,40.00,26,15,34,0.00
2013-10-27,51,42,35,-100,-100,-100,0,0,100,0.00,40.00,10,7,15,0.00
2013-10-28,47,44,38,-100,-100,-100,0,0,100,0.00,40.00,16,10,18,0.00
2013-10-29,47,43,41,-100,-100,-100,0,0,100,0.00,40.00,14,9,16,0.00
2013-10-30,56,46,37,-100,-100,-100,0,0,100,0.00,40.00,10,4,13,0.00
2013-10-31,61,58,50,-100,-100,-100,0,0,100,0.00,40.00,18,11,34,0.00
2013-11-1,61,52,48,-100,-100,-100,0,0,100,0.00,40.00,30,15,46,0.00
2013-11-2,47,45,39,-100,-100,-100,0,0,100,0.00,40.00,16,9,21,0.00
2013-11-3,43,40,37,-100,-100,-100,0,0,100,0.00,40.00,15,7,19,0.00
2013-11-4,46,44,42,-100,-100,-100,0,0,100,0.00,40.00,23,17,27,0.00
2013-11-5,55,50,46,-100,-100,-100,0,0,100,0.00,40.00,10,6,22,0.00
2013-11-6,58,53,46,-100,-100,-100,0,0,100,0.00,40.00,17,12,32,0.00
2013-11-7,46,42,38,-100,-100,-100,0,0,100,0.00,40.00,15,10,25,0.00
2013-11-8,44,38,33,-100,-100,-100,0,0,100,0.00,40.00,11,8,18,0.00
2013-11-9,56,48,40,-100,-100,-100,0,0,100,0.00,40.00,21,14,34,0.00
2013-11-10,50,44,38,-100,-100,-100,0,0,100,0.00,40.00,21,11,30,0.00
2013-11-11,43,38,30,-100,-100,-100,0,0,100,0.00,40.00,24,11,27,0.00
2013-11-12,34,30,25,-100,-100,-100,0,0,100,0.00,40.00,15,10,25,0.00
2013-11-13,39,31,24,-100,-100,-100,0,0,100,0.00,40.00,22,11,35,0.00
2013-11-14,51,40,32,-100,-100,-100,0,0,100,0.00,40.00,21,13,33,0.00
2013-11-15,50,45,42,-100,-100,-100,0,0,100,0.00,40.00,12,9,21,0.00
2013-11-16,55,46,39,-100,-100,-100,0,0,100,0.00,40.00,12,8,24,0.00
2013-11-17,61,57,51,-100,-100,-100,0,0,100,0.00,40.00,32,14,52,0.00
2013-11-18,49,42,36,-100,-100,-100,0,0,100,0.00,40.00,26,19,42,0.00
2013-11-19,38,36,34,-100,-100,-100,0,0,100,0.00,40.00,13,9,19,0.00
2013-11-20,42,39,35,-100,-100,-100,0,0,100,0.00,40.00,18,13,22,0.00
2013-11-21,46,44,42,-100,-100,-100,0,0,100,0.00,40.00,12,7,22,0.00
2013-11-22,46,41,32,-100,-100,-100,0,0,100,0.00,40.00,15,7,27,0.00
2013-11-23,31,26,18,-100,-100,-100,0,0,100,0.00,40.00,19,11,30,0.00
2013-11-24,24,20,16,-100,-100,-100,0,0,100,0.00,40.00,13,8,19,0.00
2013-11-25,31,26,22,-100,-100,-100,0,0,100,0.00,40.00,19,13,31,0.00
2013-11-26,35,32,30,-100,-100,-100,0,0,100,0.00,40.00,13,7,27,0.00
2013-11-27,32,25,21,-100,-100,-100,0,0,100,0.00,40.00,19,12,28,0.00
2013-11-28,28,24,19,-100,-100,-100,0,0,100,0.00,40.00,11,6,16,0.00
2013-11-29,31,25,19,-100,-100,-100,0,0,100,0.00,40.00,12,5,14,0.00
2013-11-30,42,34,31,-100,-100,-100,0,0,100,0.00,40.00,13,9,24,0.00
2013-12-1,40,36,33,-100,-100,-100,0,0,100,0.00,40.00,8,5,15,0.00
2013-12-2,35,34,33,-100,-100,-100,0,0,100,0.00,40.00,14,6,16,0.00
2013-12-3,38,36,34,-100,-100,-100,0,0,100,0.00,40.00,17,12,21,0.00
2013-12-4,54,41,37,-100,-100,-100,0,0,100,0.00,40.00,13,7,22,0.00
2013-12-5,58,46,33,-100,-100,-100,0,0,100,0.00,40.00,21,12,34,0.00
2013-12-6,32,28,24,-100,-100,-100,0,0,100,0.00,40.00,14,7,20,0.00
2013-12-7,25,21,19,-100,-100,-100,0,0,100,0.00,40.00,13,7,17,0.00
2013-12-8,31,22,16,-100,-100,-100,0,0,100,0.00,40.00,23,12,29,0.00
2013-12-9,31,28,21,-100,-100,-100,0,0,100,0.00,40.00,23,13,33,0.00
2013-12-10,22,20,16,-100,-100,-100,0,0,100,0.00,40.00,21,13,32,0.00
2013-12-11,23,19,11,-100,-100,-100,0,0,100,0.00,40.00,12,10,27,0.00
2013-12-12,19,14,8,-100,-100,-100,0,0,100,0.00,40.00,18,12,26,0.00
2013-12-13,26,23,19,-100,-100,-100,0,0,100,0.00,40.00,18,10,20,0.00
2013-12-14,22,20,18,-100,-100,-100,0,0,100,0.00,40.00,24,18,30,0.00
2013-12-15,25,21,15,-100,-100,-100,0,0,100,0.00,40.00,22,10,31,0.00
2013-12-16,21,16,11,-100,-100,-100,0,0,100,0.00,40.00,12,8,17,0.00
2013-12-17,26,22,16,-100,-100,-100,0,0,100,0.00,40.00,17,9,24,0.00
2013-12-18,30,26,23,-100,-100,-100,0,0,100,0.00,40.00,14,9,24,0.00
2013-12-19,40,34,28,-100,-100,-100,0,0,100,0.00,40.00,11,7,16,0.00
2013-12-20,34,33,32,-100,-100,-100,0,0,100,0.00,40.00,9,4,10,0.00
2013-12-21,34,32,32,-100,-100,-100,0,0,100,0.00,40.00,21,9,27,0.00
2013-12-22,39,35,32,-100,-100,-100,0,0,100,0.00,40.00,20,10,33,0.00
2013-12-23,36,30,27,-100,-100,-100,0,0,100,0.00,40.00,14,9,21,0.00
2013-12-24,25,17,13,-100,-100,-100,0,0,100,0.00,40.00,15,9,20,0.00
2013-12-25,25,20,13,-100,-100,-100,0,0,100,0.00,40.00,11,7,25,0.00
2013-12-26,29,26,25,-100,-100,-100,0,0,100,0.00,40.00,16,9,30,0.00
2013-12-27,38,33,26,-100,-100,-100,0,0,100,0.00,40.00,12,7,21,0.00
2013-12-28,47,40,35,-100,-100,-100,0,0,100,0.00,40.00,16,10,27,0.00
2013-12-29,43,35,23,-100,-100,-100,0,0,100,0.00,40.00,22,9,26,0.00
2013-12-30,22,19,16,-100,-100,-100,0,0,100,0.00,40.00,15,8,22,0.00
2013-12-31,21,18,15,-100,-100,-100,0,0,100,0.00,40.00,16,11,27,0.00
2014-1-1,16,14,11,-100,-100,-100,0,0,100,0.00,40.00,18,11,21,0.00
2014-1-2,14,12,6,-100,-100,-100,0,0,100,0.00,40.00,30,22,34,0.00